Location: Unspecified
(0.0000°N, 0.0000°E)
Time: 07:22:08
(UTC+00:00)

Transit 2A - Visible Passes

Search period start: 07 December 2021 00:00
Search period end: 17 December 2021 00:00
Orbit: 591 x 967 km, 66.7° (Epoch: 06 December)

Date Brightness Start Highest point End Pass type
(mag) Time Alt. Az. Time Alt. Az. Time Alt. Az.
11 Dec 8.2 19:37:48 10° SE 19:37:52 10° SE 19:37:52 10° SE visible
12 Dec 8.4 20:44:34 10° SW 20:45:44 17° SW 20:45:44 17° SW visible
13 Dec 7.0 20:10:14 10° SSW 20:13:09 38° SSW 20:13:09 38° SSW visible
14 Dec 6.1 19:36:13 10° S 19:40:39 52° ESE 19:40:39 52° ESE visible
15 Dec 6.8 19:02:33 10° S 19:06:51 31° ESE 19:08:14 27° E visible
15 Dec 8.5 20:46:46 10° WSW 20:48:47 15° W 20:48:47 15° W visible
16 Dec 7.5 18:29:25 10° SSE 18:32:45 18° ESE 18:35:53 11° ENE visible
16 Dec 7.6 20:11:22 10° SW 20:15:35 27° WNW 20:16:26 26° NW visible
